Weather Roundup
Issued by NWS Chicago, IL

Home | Current Version | Previous Version | Graphics & Text | Print | Product List | Glossary On
Versions: 1 2 3 4 5 6 7 8 9 10 11 12 13 14 15 16 17 18 19 20 21 22 23 24 25 26 27 28 29 30 31 32 33 34 35 36 37 38 39 40 41 42 43 44 45 46 47 48 49 50
000
NZUS59 KLOT 250706
HRRLOT

CHICAGO AREA WEATHER ROUNDUP
NATIONAL WEATHER SERVICE CHICAGO/ROMEOVILLE IL
200 AM CDT FRI JUL 25 2014

NOTE: "FAIR" INDICATES FEW OR NO CLOUDS BELOW 12,000 FEET WITH NO
SIGNIFICANT WEATHER AND/OR OBSTRUCTIONS TO VISIBILITY.

* THESE STATIONS ARE NOT UNDER NWS QUALITY CONTROL. THEY ALSO MAY NOT
  REPORT WEATHER SUCH AS PRECIPITATION OR FOG.

ILZ005-006-012>014-019>023-250800-
NORTHEAST ILLINOIS

CITY           SKY/WX    TMP DP  RH WIND       PRES   REMARKS
OHARE          PTCLDY    59  48  67 SW3       30.07R
MIDWAY         CLEAR     63  51  65 SW3       30.06R
AURORA         CLEAR     53  48  83 W3        30.08R
JOLIET*        CLEAR     54  50  86 CALM      30.09R
WAUKEGAN       CLEAR     56  49  77 SW3       30.06R
DUPAGE AIRPORT CLEAR     57  50  77 CALM      30.07R
WHEELING       CLEAR     58  48  69 CALM      30.08R
KANKAKEE*      CLEAR     53  51  93 CALM      30.07S
MORRIS*        CLEAR     56  53  90 NW3       30.07R
LEWIS AIRPORT* CLEAR     54  49  83 CALM      30.08R
NORTHERLY IS   NOT AVBL
$$

WIZ051-052-058>065-066-070>072-250800-
SOUTHEAST WISCONSIN

CITY           SKY/WX    TMP DP  RH WIND       PRES   REMARKS
MILWAUKEE      PTCLDY    60  46  59 S5        30.06R
KENOSHA*       CLEAR     53  48  83 SW3       30.07R
RACINE*        MOCLDY    58  51  78 SW5       30.08R
BURLINGTON     CLEAR     48  47  96 SW3       30.07R
WAUKESHA       CLEAR     55  45  67 SW5       30.07S
WEST BEND      PTCLDY    55  43  62 CALM      30.05S
$$

INZ001>003-010>013-019-020-250800-
NORTHWEST INDIANA

CITY           SKY/WX    TMP DP  RH WIND       PRES   REMARKS
GARY*          CLEAR     54  52  94 CALM      30.07R
MICHIGAN CITY* NOT AVBL
RENSSELAER*    NOT AVBL
VALPARAISO     CLEAR     51  48  89 CALM      30.06F
$$

LMZ740>746-250800-
SOUTHERN LAKE MICHIGAN

STATION/POSITION TIME  SKY/WX   TEMP WIND        PRES    VSBY
                                AIR  DIR/SP/G
                 (UTC)          (F)  (DEG/KT/KT) (MB)    (MI)
HARRISON CRIB    0700            64  190/  9/ 11   N/A
BURNHAM HARBOR   NOT AVBL
CALUMET HARBOR   0700            61  210/  3/  4 1016.5R
BURNS HARBOR     NOT AVBL
MICHIGAN CITY    0700            58  130/  7/  8   N/A
$$

ABBREVIATIONS USED IN REMARKS
   TC - TEMPERATURE IN CELSIUS
  WCI - WIND CHILL INDEX
   HX - HEAT INDEX
  VSB - VISIBILITY
$$



USA.gov is the U.S. government's official web portal to all federal, state and local government web resources and services.